Location: McFarlands Corners
(41.4117°N, 81.3382°W)
Time: 13:29:04
(UTC+00:00)

Courier 1B Rocket - Pass Details

Date: 21 February 2026
Orbit: 920 x 1201 km, 28.2° (Epoch: 10 March)

Event Time Altitude Azimuth Distance (km) Brightness Sun altitude
Rises 04:36:04 0° 252° (WSW) 3,622 - -56.2°
Reaches altitude 10° 04:41:04 10° 218° (SW) 2,736 - -56.6°
Maximum altitude 04:42:47 11° 203° (SSW) 2,681 - -56.8°
Drops below altitude 10° 04:44:32 10° 188° (S) 2,784 - -56.9°
Sets 04:49:49 0° 155° (SSE) 3,816 - -57.3°
